User: anonymous   Login
Location: Tierra del Sol
(32.6128°N, 116.3319°W)
Time: 09:43:13
(UTC-07:00)
Language:

Vanguard 3 - Orbit

View from above orbital plane
View from above orbital plane
View from above satellite
View from above satellite

Ground track
Ground track

The orbit data is extracted from the following two-line orbital elements,

1 00020U 59007A   18197.20055339  .00000021  00000-0  80635-5 0  9996
2 00020  33.3402 163.5948 1667213 141.8518 231.2717 11.55589754149376
Epoch (UTC): 16 July 2018 04:48:47
Eccentricity: 0.1667213
inclination: 33.3402°
perigee height: 508 km
apogee height: 3264 km
right ascension of ascending node: 163.5948°
argument of perigee: 141.8518°
revolutions per day: 11.55589754
mean anomaly at epoch: 231.2717°
orbit number at epoch: 14937

The dashed part of the orbit path shows where the satellite is in the earth's shadow,  

DLR